Starlink 32640

operational
NORAD ID: 62198 Int'l Des: 2024-229 Owner: SPXS Country: US Constellation: starlink
LEOCIRCULAR

关于 Starlink 32640

正在加载描述...

实时位置

正在加载3D地球...

即将过境

高度历史

Altitude vs Time

uPlot chart will show altitude changes over time

两行轨道根数

1 62198U 24229G 25303.24396905 .00047960 00000-0 17389-2 0 9992
2 62198 43.0026 287.2158 0000643 116.6981 243.3936 15.27621333 50616
Epoch: Oct 30, 2025 • Age: 18 hours

当前状态

高度 496.3 km
速度 7.62 km/s
星下点 -42.98°S, 142.8°E
发射日期 Dec 4, 2024
运行时间 0.9 years
类型 internet

技术详情

分类 Payload
质量 730.00 kg
干质量 700.00 kg
总质量 730.00 kg
长度 0.30 m
直径 4.10 m
跨度 29.00 m
形状 Box + pan
制造商 SPXS
平台类型 Starlink V2M
阶段状态 In Orbit
所有者/国家 SPXS/US

大型星座

Loading constellations...